CZ-6A DEB

Satellite information

Favourite Embed

Satellite Type and Status

DEBRISIN ORBIT

Key statistics

Satellite CZ-6A DEB at a glance.

Uptime

908

Days in orbit

Revolutions

≈ 14.5

Per day

Orbit

SSO

Sun Synchronous Orbit

Inclination

98.6

Latest

Satellite identification and parameters

Extended collection of information and parameters for CZ-6A DEB.

Object identification

Identified? True

Debris? True

Object name: CZ-6A DEB

International designator: 2022-151LZ

Object number (NORAD): 54573

Object ID (CCSDS): 54573

Country: PEOPLES REPUBLIC OF CHINA (PRC)

Current information (Y/N): Y

RCS size: SMALL

Orbital parameters

Period: 99.313 minutes

Inclination: 98.6444 deg

SMA: 7103.929 km

Apoapsis: 797.471 km

Periapsis: 654.117 km

RAAN: 164.5315 deg

Eccentricy: 0.0100898

Argument of periapsis: 100.5359 deg

Mean anomaly: 260.722 deg

Mean motion: 14.49956112 rev/day

Mean motion (dot): 0.00006525 rev/day2

B* drag term: 0.0015909 1/REarth

Two-line elements (TLE)

Creation date: May 7, 2025, 3:14 a.m.

Reference frame: TEME

Reference center: EARTH

Epoch: May 6, 2025, 2:44 p.m. UTC

TLE line 0: 0 CZ-6A DEB

TLE line 1: 1 54573U 22151LZ 25126.61394398 .00006525 00000-0 15909-2 0 9998

TLE line 2: 2 54573 98.6444 164.5315 0100898 100.5359 260.7220 14.49956112130033

Live tracking on map

Real-time ground track for satellite CZ-6A DEB.

In-orbit conjunctions

A list of the most updated potential collisions computed for object CZ-6A DEB.

Target Orbit TCA Probability of collision Miss distance Type
SL-8 R/B LEO 2025-05-04 12:33:10 0.0001032295 299.0 (m) ROCKET BODY
COSMOS 2208 LEO 2024-12-18 10:38:02 0.0001979014 740.0 (m) PAYLOAD

Associated space launch

Chinese satellite reported for atmospheric/ocean/environmental/spatial parameter research purposes, details TBD.

CZ-6A DEB was lifted into orbit during the mission ‘Long March 6A | Yunhai 3’, on board a Long March 6A space rocket.

The launch took place on Nov. 11, 2022, 10:52 p.m. from Launch Complex 9A.

For more information about the launch, click the button.

Launch to space Long March 6A | Yunhai 3
Long March 6A | Yunhai 3

Agency: N/A

Status: Launch Successful

Launch date: Nov. 11, 2022, 10:52 p.m. UTC

Rocket: Long March 6A

Launch pad: Launch Complex 9A

Location: Taiyuan Satellite Launch Center, People's Republic of China

...

Latest news about this satellite

There are no fresh news available about this satellite. Check back as we update our databases every day.


Newsletter sign-up

Weekly statistics, charts and insights to help you stay on top of the space industry.